{"data":{"norad_id":43005,"intl_designator":"2017-070A","name":"MOHAMMED VI-A","alt_names":[],"object_type":"PAYLOAD","status":"ACTIVE","operator":null,"country":"MA","launch_date":"2017-11-08","launch_site_code":"FRGUI","launch_vehicle":null,"mission":null,"orbit_class":"UNKNOWN","rcs_meters":null,"size_class":null,"mass_kg":null,"dimensions":null,"purposes":[],"wikipedia_slug":null,"has_3d_model":false,"image_url":null,"decayed_at":null,"tle_current":{"epoch":"2026-09-20T04:26:21.535872Z","epoch_age_seconds":78209,"freshness":"FRESH","line1":"1 43005U 17070A   26263.18497148  .00000565  00000+0  87211-4 0  9996","line2":"2 43005  97.9477 334.1657 0001464  79.6517 280.4858 14.77075681478006","mean_motion":14.77075681,"eccentricity":0.0001464,"inclination_deg":97.9477,"raan_deg":334.1657,"arg_perigee_deg":79.6517,"mean_anomaly_deg":280.4858,"bstar":8.7211e-5,"rev_number":47800,"period_min":97.489926787306,"perigee_km":637.54276850232,"apogee_km":639.59726031613,"semimajor_km":7016.7070144092,"source":"CELESTRAK","updated_at":"2026-09-20T09:00:14.263381Z"}}}